COSMOS 2251 DEB, 34588

Orbit data source: Space-Track

COSMOS 2251 DEB, 34588 is space debris in LEO originally from a launch on Wed, 16 Jun 1993 UTC launched from the Plesetsk Missile And Space Complex (PKMTR). The debris from Iridium 33, an American commercial communications satellite, has been tracked extensively since its accidental collision with the defunct Russian satellite Cosmos 2251 in 2009. This event, occurring at high speed in low Earth orbit (LEO), generated thousands of pieces of space debris, significantly increasing the risk of further collisions. The Iridium 33 debris cloud has impacted space traffic management and orbital debris mitigation strategies, making it a subject of ongoing study in space situational awareness.

Loading next visibility...
Identifier
34588, 1993-036WA
Orbit
LEO
Country
Flag of CISCIS
Related business
Manufacturer
Unknown
Mission
Spacecraft
Bus & Motor
Unknown
Mass
Unknown
Launch date (UTC)
1993-06-16 (33 years ago)
Launch vehicle
Unknown
Launch site
Plesetsk Missile And Space Complex (PKMTR)
Object type
Payload
Rocket body
Debris
Shape & HBR
Unknown shape, 0.2 m
Radar Cross Section
Small (<0.1 m²)

Expand to show TLE details & history
Last TLE update: 10 hours ago

TLE from 10 hours ago
0 COSMOS 2251 DEB
1 34588U 93036WA  25352.51585113  .00001120  00000-0  34849-3 0  9990
2 34588  74.0430 257.5524 0019260 309.6191 232.6160 14.42038805880332
Epoch: 2025-12-18T12:22Z
TLE epoch observation values (Epoch: 2025-12-18T12:22:49.537Z)
Latitude
-2.10445°
Longitude
165.07456°
Altitude
763.042 km
Speed
7.468 km/s
True Right ascension
05h 12m 36s
True Declination
-2° 05' 31"
Sunlit
Object was in full shadow at epoch
Visualization orbit readout
Latitude
Unknown
Longitude
Unknown
Altitude
Unknown
Speed
Unknown
Apparent Right ascension
Unknown
Apparent Declination
Unknown
Sunlit
N/A
Visualization observer readout
Local Sidereal Time
21:04:51
Azimuth
Unknown
Elevation
Unknown
Doppler factor
Unknown
Orbital elements
Apogee altitude
763.115 km
Perigee altitude
735.659 km
Semi-major axis
7,127.524 km
Eccentricity
0.00193
Inclination
74.043°
RAAN
257.5524°
Arg. of periapsis
309.6191°
True anomaly
232.44089°
Mean anomaly
232.616°
Eccentric anomaly
232.52842°
Mean motion
3.60691 °/min
Orbital period
99.81 mins
BSTAR
0.00034849
Loading maneuver chart data...
Computing Atmospheric mass density...

Documentation

Showing up to 5 results
|